Regional Weather Roundup
Issued by NWS

Home | Current Version | Previous Version | Graphics & Text | Print | Product List | Glossary On
Versions: 1 2 3 4 5 6 7 8 9 10 11 12 13 14 15 16 17 18 19 20 21 22 23 24 25 26 27 28 29 30 31 32 33 34 35 36 37 38 39 40 41 42 43 44 45 46 47 48 49 50
000
ASUS43 KLMK 020410
RWRKY
KENTUCKY REGIONAL WEATHER ROUNDUP
NATIONAL WEATHER SERVICE LOUISVILLE KY
1200 AM EDT SUN AUG 02 2015

NOTE "FAIR" INDICATES FEW OR NO CLOUDS BELOW 12,000 FEET
WITH NO SIGNIFICANT WEATHER AND/OR OBSTRUCTIONS TO VISIBILITY.

KYZ001>023-026-027-061>063-070>075-020500-
WESTERN AND SOUTH CENTRAL KENTUCKY

CITY           SKY/WX    TMP DP  RH WIND       PRES   REMARKS
PADUCAH        CLEAR     73  69  87 CALM      29.98S
HENDERSON      CLEAR     66  61  82 CALM      29.98S
OWENSBORO      PTCLDY    71  66  84 CALM      29.99S
HOPKINSVILLE   CLEAR     72  66  79 N2        29.99S
BOWLING GREEN  PTCLDY    70  61  73 CALM      30.00S
GLASGOW        CLEAR    N/A N/A N/A CALM      30.00F
$$

KYZ024-025-028>034-038-045-046-053-020500-
NORTH CENTRAL KENTUCKY

CITY           SKY/WX    TMP DP  RH WIND       PRES   REMARKS
LOUISVILLE/SDF MOCLDY    77  57  50 CALM      29.98S
LOUISVILLE/LOU PTCLDY    72  60  66 CALM      30.00S
FORT KNOX      NOT AVBL
$$

KYZ035>037-039>044-047>052-055>060-089>105-020500-
NORTHEAST KENTUCKY

CITY           SKY/WX    TMP DP  RH WIND       PRES   REMARKS
LEXINGTON      CLEAR     66  60  81 CALM      30.01S
COVINGTON      PTCLDY    70  58  65 W5        30.00S
FRANKFORT      PTCLDY    66  60  81 CALM      29.99F
$$

KYZ054-064>069-076>088-106>120-020500-
SOUTHEAST KENTUCKY

CITY           SKY/WX    TMP DP  RH WIND       PRES   REMARKS
JACKSON        CLEAR     70  57  63 CALM      30.02S
LONDON         CLEAR     67  60  78 CALM      30.02S
SOMERSET       CLEAR     63  63 100 CALM      30.03R
MIDDLESBORO    PTCLDY    67  64  88 CALM      30.03S
MONTICELLO     CLEAR     63  63 100 CALM      30.05R
$$




USA.gov is the U.S. government's official web portal to all federal, state and local government web resources and services.